Change the Weather History Date:

Saturday, January 25, 2014

  Actual Average Record
Temperature  
Mean Temperature 22 °F -  
Max Temperature 28 °F 35 °F 71 °F (1950)
Min Temperature 16 °F 19 °F -16 °F (1963)
Degree Days  
Heating Degree Days 43    
Moisture  
Dew Point 2 °F    
Average Humidity 46    
Maximum Humidity 80    
Minimum Humidity 28    
Precipitation  
Precipitation 0.00 in - - ()
Sea Level Pressure  
Sea Level Pressure 29.55 in    
Wind  
Wind Speed 10 mph (SW)    
Max Wind Speed 17 mph    
Max Gust Speed 29 mph    
Visibility 8 miles    
Events Snow    
Averages and records for this station are not official NWS values.
T = Trace of Precipitation, MM = Missing Value Source: NWS Daily Summary

Daily Weather History Graph

Daily Weather History Graph

Search for Another Location

Airport or City:

Trip Planner

Search our weather history database for the weather conditions in past years. The results will help you decide how hot, cold, wet, or windy it might be!

Date:

Astronomy

Jan. 25, 2014 Rise Set
Actual Time 7:27 AM EST 5:20 PM EST
Civil Twilight 6:58 AM EST 5:49 PM EST
Nautical Twilight 6:24 AM EST 6:22 PM EST
Astronomical Twilight 5:52 AM EST 6:55 PM EST
Moon 1:57 AM EST (1/25) 12:19 PM EST (1/25)
Length of Visible Light 10h 51m
Length of Day
9h 52m
Waning Crescent, 34% of the Moon is Illuminated
Jan 25
Waning Crescent
Jan 30
New
Feb 6
First Quarter
Feb 14
Full
Feb 22
Last Quarter

Hourly Weather History & Observations

Time (EST) Temp. Windchill Dew Point Humidity Pressure Visibility Wind Dir Wind Speed Gust Speed Precip Events Conditions
12:15 AM 17.8 °F 6.6 °F -10.3 °F 28% 29.82 in 10.0 mi SSW 9.2 mph - N/A   Scattered Clouds
12:35 AM 17.6 °F 7.3 °F -10.1 °F 29% 29.81 in 10.0 mi SSW 8.1 mph - N/A   Scattered Clouds
12:55 AM 17.4 °F 4.1 °F -10.3 °F 29% 29.79 in 10.0 mi SSW 12.7 mph - N/A   Scattered Clouds
1:15 AM 17.6 °F 5.0 °F -9.6 °F 30% 29.78 in 10.0 mi SSW 11.5 mph 17.3 mph N/A   Scattered Clouds
1:35 AM 17.8 °F 5.9 °F -9.2 °F 30% 29.77 in 10.0 mi SSW 10.4 mph - N/A   Clear
1:55 AM 18.0 °F 5.4 °F -9.2 °F 30% 29.76 in 10.0 mi SSW 11.5 mph - N/A   Clear
2:15 AM 17.6 °F 6.4 °F -8.7 °F 31% 29.74 in 10.0 mi SSW 9.2 mph 16.1 mph N/A   Scattered Clouds
2:35 AM 17.6 °F 5.0 °F -8.9 °F 31% 29.72 in 10.0 mi SSW 11.5 mph 16.1 mph N/A   Scattered Clouds
2:55 AM 18.0 °F 5.4 °F -9.0 °F 30% 29.71 in 10.0 mi SSW 11.5 mph 16.1 mph N/A   Clear
3:15 AM 17.6 °F 5.7 °F -9.2 °F 30% 29.70 in 10.0 mi SSW 10.4 mph - N/A   Scattered Clouds
3:35 AM 17.8 °F 5.9 °F -9.4 °F 30% 29.69 in 10.0 mi SSW 10.4 mph - N/A   Mostly Cloudy
3:55 AM 18.1 °F 7.1 °F -9.4 °F 29% 29.67 in 10.0 mi SW 9.2 mph - N/A   Mostly Cloudy
4:15 AM 18.5 °F 7.5 °F -9.6 °F 28% 29.65 in 10.0 mi SSW 9.2 mph - N/A   Mostly Cloudy
4:35 AM 19.0 °F 9.0 °F -9.4 °F 28% 29.64 in 10.0 mi SSW 8.1 mph - N/A   Overcast
4:55 AM 16.5 °F 9.4 °F -6.0 °F 37% 29.63 in 10.0 mi West 4.6 mph - N/A   Overcast
5:15 AM 16.7 °F 8.3 °F -4.7 °F 39% 29.62 in 10.0 mi West 5.8 mph - N/A   Overcast
5:35 AM 17.4 °F 8.0 °F -6.3 °F 35% 29.62 in 10.0 mi WSW 6.9 mph - N/A   Overcast
5:53 AM 17.6 °F 10.7 °F -2.2 °F 42% 29.61 in 10.0 mi SW 4.6 mph - N/A   Overcast
6:53 AM 17.6 °F 6.4 °F -5.8 °F 35% 29.58 in 10.0 mi SSW 9.2 mph - N/A   Overcast
7:53 AM 19.4 °F 7.9 °F -0.4 °F 42% 29.55 in 7.0 mi SSW 10.4 mph - N/A   Overcast
8:53 AM 21.2 °F 10.1 °F 3.2 °F 46% 29.52 in 10.0 mi SW 10.4 mph - N/A   Overcast
9:53 AM 24.8 °F 14.6 °F 1.4 °F 36% 29.49 in 10.0 mi SW 10.4 mph - N/A   Overcast
10:53 AM 26.6 °F 15.2 °F 1.4 °F 34% 29.45 in 7.0 mi SSW 13.8 mph - N/A   Clear
11:53 AM 28.4 °F 16.6 °F 6.8 °F 40% 29.40 in 5.0 mi SW 16.1 mph - N/A Snow Light Snow
12:53 PM 28.4 °F 16.2 °F 12.2 °F 51% 29.36 in 2.0 mi SW 17.3 mph - N/A Snow Light Snow
1:50 PM 26.6 °F 16.2 °F 19.4 °F 74% 29.33 in 2.0 mi SSW 11.5 mph - N/A Snow Light Snow
2:50 PM 28.4 °F 18.5 °F 21.2 °F 74% 29.31 in 2.0 mi SSW 11.5 mph - N/A Snow Light Snow
3:50 PM 28.4 °F 18.5 °F 19.4 °F 69% 29.31 in 2.0 mi SSW 11.5 mph - N/A Snow Light Snow
3:57 PM 28.4 °F 18.5 °F 19.4 °F 69% 29.31 in 2.0 mi SSW 11.5 mph - N/A Snow Light Snow
4:51 PM 28.4 °F 18.5 °F 21.2 °F 74% 29.32 in 2.5 mi SSW 11.5 mph - N/A Snow Light Snow
5:35 PM 26.6 °F 14.7 °F 19.4 °F 74% 29.34 in 5.0 mi WSW 15.0 mph 20.7 mph N/A Snow Light Snow
5:53 PM 26.6 °F 15.7 °F 17.6 °F 69% 29.34 in 7.0 mi WSW 12.7 mph 18.4 mph N/A Snow Light Snow
6:58 PM 26.6 °F 16.2 °F 14.0 °F 59% 29.36 in 10.0 mi WSW 11.5 mph - N/A   Mostly Cloudy
7:53 PM 26.6 °F 16.2 °F 17.6 °F 69% 29.39 in 5.0 mi West 11.5 mph - N/A Snow Light Snow
8:09 PM 26.6 °F 16.2 °F 17.6 °F 69% 29.39 in 2.0 mi West 11.5 mph - N/A Snow Light Snow
8:13 PM 26.6 °F 16.2 °F 19.4 °F 74% 29.39 in 0.8 mi West 11.5 mph - N/A Snow Light Snow
8:28 PM 26.6 °F 18.2 °F 21.2 °F 80% 29.41 in 3.0 mi NW 8.1 mph 16.1 mph N/A Snow Light Snow Showers
8:53 PM 26.6 °F 14.7 °F 15.8 °F 64% 29.42 in 10.0 mi WNW 15.0 mph 24.2 mph N/A Snow Light Snow Showers
10:15 PM 19.4 °F 5.5 °F -0.4 °F 42% 29.52 in 10.0 mi NW 15.0 mph 28.8 mph N/A   Mostly Cloudy
10:35 PM 18.9 °F 6.5 °F -0.6 °F 43% 29.54 in 10.0 mi NW 11.5 mph 26.5 mph N/A   Overcast
10:55 PM 18.1 °F 4.4 °F -0.6 °F 44% 29.55 in 10.0 mi WNW 13.8 mph 19.6 mph N/A   Overcast
11:15 PM 17.6 °F 7.3 °F -0.8 °F 45% 29.57 in 10.0 mi NW 8.1 mph - N/A   Overcast
11:35 PM 17.1 °F 5.0 °F 0.3 °F 48% 29.58 in 10.0 mi WNW 10.4 mph - N/A   Overcast
11:55 PM 16.9 °F 4.8 °F 0.3 °F 48% 29.59 in 10.0 mi WNW 10.4 mph - N/A   Overcast